TimeCST,TemperatureF,Dew PointF,Humidity,Sea Level PressureIn,VisibilityMPH,Wind Direction,Wind SpeedMPH,Gust SpeedMPH,PrecipitationIn,Events,Conditions,WindDirDegrees,DateUTC
12:53 AM,50.0,36.0,59,30.38,10.0,WNW,3.5,-,N/A,,Clear,300,2013-11-14 06:53:00
1:53 AM,48.9,36.0,61,30.35,10.0,NNW,3.5,-,N/A,,Clear,330,2013-11-14 07:53:00
2:53 AM,48.9,36.0,61,30.32,10.0,NW,5.8,-,N/A,,Clear,310,2013-11-14 08:53:00
3:53 AM,50.0,36.0,59,30.31,10.0,NW,6.9,-,N/A,,Clear,320,2013-11-14 09:53:00
4:53 AM,50.0,35.1,57,30.29,10.0,NNW,4.6,-,N/A,,Clear,340,2013-11-14 10:53:00
5:53 AM,51.1,35.1,54,30.29,10.0,NNW,6.9,-,N/A,,Clear,340,2013-11-14 11:53:00
6:53 AM,50.0,35.1,57,30.29,10.0,North,9.2,-,N/A,,Clear,350,2013-11-14 12:53:00
7:53 AM,51.1,36.0,56,30.28,10.0,North,6.9,-,N/A,,Clear,350,2013-11-14 13:53:00
8:53 AM,53.1,37.0,55,30.28,10.0,NNW,4.6,-,N/A,,Clear,340,2013-11-14 14:53:00
9:53 AM,54.0,37.9,55,30.27,10.0,NNW,3.5,-,N/A,,Clear,330,2013-11-14 15:53:00
10:53 AM,57.0,39.9,53,30.25,10.0,NNW,5.8,-,N/A,,Partly Cloudy,330,2013-11-14 16:53:00
11:53 AM,61.0,45.0,56,30.23,10.0,North,4.6,-,N/A,,Clear,350,2013-11-14 17:53:00
12:53 PM,63.0,46.9,56,30.18,10.0,Variable,3.5,-,N/A,,Clear,0,2013-11-14 18:53:00
1:53 PM,64.0,48.0,56,30.14,10.0,North,3.5,-,N/A,,Scattered Clouds,360,2013-11-14 19:53:00
2:53 PM,63.0,48.0,58,30.10,10.0,North,3.5,-,0.00,,Mostly Cloudy,350,2013-11-14 20:53:00
3:53 PM,62.1,48.9,62,30.09,10.0,NW,6.9,-,0.00,,Mostly Cloudy,310,2013-11-14 21:53:00
4:53 PM,59.0,50.0,72,30.09,10.0,NW,10.4,-,0.00,Rain,Light Rain,310,2013-11-14 22:53:00
5:53 PM,57.0,50.0,77,30.08,10.0,West,5.8,-,0.00,,Clear,280,2013-11-14 23:53:00
6:53 PM,57.0,48.9,74,30.11,10.0,WNW,3.5,-,N/A,,Clear,290,2013-11-15 00:53:00
7:53 PM,57.0,48.0,72,30.10,10.0,Calm,Calm,-,N/A,,Clear,0,2013-11-15 01:53:00
8:53 PM,55.9,48.0,75,30.09,10.0,WSW,3.5,-,N/A,,Clear,240,2013-11-15 02:53:00
9:53 PM,55.9,48.0,75,30.09,10.0,WNW,3.5,-,N/A,,Clear,290,2013-11-15 03:53:00
10:53 PM,55.0,46.9,74,30.08,10.0,West,3.5,-,N/A,,Clear,280,2013-11-15 04:53:00
11:53 PM,55.0,48.0,77,30.06,10.0,Calm,Calm,-,N/A,,Clear,0,2013-11-15 05:53:00